Millinocket, ME

10:07 AM EDT on March 30, 2017 (GMT -0400)
Millinocket Municipal

Weather History for KMLT - July, 2013

Change the Weather History Date:

Monday, July 1, 2013

  Actual Average Record
Temperature  
Mean Temperature 73 °F 67 °F  
Max Temperature 80 °F 77 °F 93 °F (1971)
Min Temperature 66 °F 57 °F 38 °F (1912)
Degree Days  
Heating Degree Days 0 1  
Month to date heating degree days 0 1  
Since 1 June heating degree days 101 117  
Since 1 July heating degree days 0 1  
Cooling Degree Days 8 3  
Month to date cooling degree days 8 3  
Year to date cooling degree days 77 58  
Since 1 June cooling degree days 69 52  
Growing Degree Days 22 (Base 50)    
Moisture  
Dew Point 61 °F    
Average Humidity 72    
Maximum Humidity 93    
Minimum Humidity 51    
Precipitation  
Precipitation 0.01 in 0.13 in 1.14 in (1904)
Month to date precipitation 0.01 0.13  
Year to date precipitation 16.88 19.27  
Snow  
Snow 0.00 in - - ()
Month to date snowfall 0.0  
Since 1 June snowfall 0.0  
Snow Depth 0.00 in    
Sea Level Pressure  
Sea Level Pressure 30.04 in    
Wind  
Wind Speed 2 mph (NW)    
Max Wind Speed 9 mph    
Max Gust Speed 14 mph    
Visibility 8 miles    
Events Rain    
T = Trace of Precipitation, MM = Missing Value Source: NWS Daily Summary

Daily Weather History Graph

Daily Weather History Graph

Search for Another Location

Airport or City:

Trip Planner

Search our weather history database for the weather conditions in past years. The results will help you decide how hot, cold, wet, or windy it might be!

Date:

Astronomy

Jul. 01, 2013 Rise Set
Actual Time 4:49 AM EDT 8:27 PM EDT
Civil Twilight 4:11 AM EDT 9:05 PM EDT
Nautical Twilight 3:20 AM EDT 9:55 PM EDT
Astronomical Twilight 2:12 AM EDT 11:03 PM EDT
Moon 12:29 AM EDT (7/1) 2:29 PM EDT (7/1)
Length of Visible Light 16h 53m
Length of Day
15h 38m
Waning Crescent, 35% of the Moon is Illuminated
Jul 1
Waning Crescent
Jul 8
New
Jul 15
First Quarter
Jul 22
Full
Jul 29
Last Quarter

Hourly Weather History & Observations

Time (EDT) Temp. Dew Point Humidity Pressure Visibility Wind Dir Wind Speed Gust Speed Precip Events Conditions
12:12 AM 66.2 °F 66.2 °F 100% 29.94 in 7.0 mi ESE 3.5 mph - 0.00 in Rain Light Rain
12:53 AM 66.9 °F 64.9 °F 93% 29.95 in 9.0 mi Calm Calm - 0.00 in   Partly Cloudy
1:53 AM 66.0 °F 64.9 °F 96% 29.95 in 4.0 mi Calm Calm - N/A   Partly Cloudy
2:53 AM 66.0 °F 64.9 °F 96% 29.96 in 5.0 mi Calm Calm - N/A   Overcast
3:53 AM 66.0 °F 64.0 °F 93% 29.97 in 7.0 mi Calm Calm - N/A   Partly Cloudy
4:53 AM 66.0 °F 64.0 °F 93% 29.98 in 8.0 mi Calm Calm - 0.01 in   Mostly Cloudy
5:53 AM 66.0 °F 64.0 °F 93% 29.99 in 9.0 mi Calm Calm - N/A   Overcast
6:53 AM 68.0 °F 64.9 °F 90% 30.00 in 9.0 mi Calm Calm - N/A   Overcast
7:02 AM 68.0 °F 66.2 °F 94% 29.99 in 8.0 mi Calm Calm - N/A   Overcast
7:53 AM 71.1 °F 64.0 °F 78% 30.02 in 10.0 mi WNW 3.5 mph - N/A   Overcast
8:53 AM 73.9 °F 64.9 °F 73% 30.03 in 10.0 mi WNW 4.6 mph - N/A   Clear
9:53 AM 77.0 °F 62.1 °F 60% 30.03 in 10.0 mi NNW 5.8 mph - N/A   Overcast
10:53 AM 75.9 °F 62.1 °F 62% 30.04 in 10.0 mi WNW 3.5 mph - N/A   Overcast
11:53 AM 77.0 °F 63.0 °F 62% 30.05 in 10.0 mi Calm Calm - N/A   Clear
12:53 PM 78.1 °F 61.0 °F 56% 30.05 in 10.0 mi WNW 5.8 mph - N/A   Mostly Cloudy
1:53 PM 78.1 °F 61.0 °F 56% 30.06 in 10.0 mi West 6.9 mph - N/A   Partly Cloudy
2:53 PM 78.1 °F 60.1 °F 54% 30.06 in 10.0 mi WNW 6.9 mph - N/A   Clear
3:53 PM 78.1 °F 61.0 °F 56% 30.06 in 8.0 mi Calm Calm - N/A   Clear
4:53 PM 77.0 °F 60.1 °F 56% 30.07 in 7.0 mi Calm Calm - N/A   Clear
5:53 PM 73.9 °F 62.1 °F 66% 30.08 in 7.0 mi Calm Calm - N/A   Clear
6:53 PM 75.9 °F 59.0 °F 56% 30.10 in 8.0 mi Calm Calm - N/A   Clear
7:53 PM 71.1 °F 62.1 °F 73% 30.11 in 8.0 mi Calm Calm - N/A   Mostly Cloudy
8:53 PM 71.1 °F 59.0 °F 66% 30.14 in 10.0 mi Calm Calm - N/A   Scattered Clouds
9:53 PM 70.0 °F 52.0 °F 53% 30.16 in 9.0 mi NNE 4.6 mph - N/A   Clear
10:53 PM 69.1 °F 50.0 °F 51% 30.19 in 8.0 mi Variable 3.5 mph - N/A   Scattered Clouds
11:53 PM 66.9 °F 48.0 °F 51% 30.18 in 6.0 mi Calm Calm - N/A   Haze